Voltar ao catálogo

NOAA 16 DEB

AtivoSSO
NORAD 41283·DEBRIS·🇺🇸 United States

Lançado Sep 21, 2000 de Vandenberg Space Force Base

Loading…

Próximas Passagens (próximas 24 horas)

TLE

AtualizadoSource: Space-Track

Época: Sep 12, 2026, 03:52 UTC

1 41283U 00055GK  26255.16126385  .00001476  00000-0  85238-3 0  9997
2 41283  98.8441 232.3789 0060477 112.0794 248.6813 14.09649231548891

Acompanhe NOAA 16 DEB em tempo real com AllMySat

Download on the App Store